EW6659 Weather Reports


time (UTC)temp
F
wind
direction
speed
knots
gust
knots
rain 1hr
in
rain 24hr
in
rain mn
in
humidity
%
barometer
mb
20260509173005 58 227 0.0 2.6 0.00 0.00 0.00 35 1005.7
20260509171600 57 250 0.0 0.0 0.00 0.00 0.00 32 1005.8
20260509170056 57 233 0.0 2.6 0.00 0.00 0.00 29 1006.0
20260509164553 57 219 0.0 2.6 0.00 0.00 0.00 24 1006.0
20260509163049 56 265 0.0 0.0 0.00 0.00 0.00 17 1006.3
20260509161545 55 61 0.0 0.0 0.00 0.00 0.00 12 1006.5
20260509160041 55 236 0.0 0.0 0.00 0.00 0.00 3 1006.7
20260509154533 54 241 0.0 0.0 0.00 0.00 0.00 3 1006.8
20260509153043 54 254 0.0 0.0 0.00 0.00 0.00 3 1006.9
20260509151525 54 78 0.0 0.0 0.00 0.00 0.00 3 1007.0
20260509150030 55 167 0.0 0.0 0.00 0.00 0.00 7 1007.2
20260509144515 55 220 0.0 0.0 0.00 0.00 0.00 8 1007.1
20260509143011 55 278 0.0 0.0 0.00 0.00 0.00 4 1007.1
20260509141507 54 250 0.0 0.0 0.00 0.00 0.00 1 1007.2
20260509140004 53 66 0.0 0.0 0.00 0.00 0.00 1 1007.4
20260509134559 53 210 0.0 0.0 0.00 0.00 0.00 1 1007.5
20260509133055 52 142 0.0 0.9 0.00 0.00 0.00 1 1007.6
20260509131553 51 156 0.0 0.0 0.00 0.00 0.00 1 1007.7
20260509130045 51 252 0.0 1.7 0.00 0.00 0.00 1 1007.6
20260509124541 50 227 0.0 0.0 0.00 0.00 0.00 1 1007.6
20260509123042 50 231 0.0 0.0 0.00 0.00 0.00 1 1007.5
20260509121533 49 233 0.0 0.0 0.00 0.00 0.00 1 1007.7
20260509120031 45 233 0.0 0.0 0.00 0.00 0.00 1 1007.8
20260509114524 44 27 0.0 0.0 0.00 0.00 0.00 1 1008.0
20260509113018 43 27 0.0 0.0 0.00 0.00 0.00 1 1008.2
20260509111514 43 27 0.0 0.0 0.00 0.00 0.00 1 1008.0
20260509110013 42 27 0.0 0.0 0.00 0.00 0.00 1 1008.1
20260509104512 41 27 0.0 0.0 0.00 0.00 0.00 1 1008.1
20260509103011 41 27 0.0 0.0 0.00 0.00 0.00 1 1008.1
20260509101511 40 27 0.0 0.0 0.00 0.00 0.00 1 1008.0
20260509100010 40 27 0.0 0.0 0.00 0.00 0.00 1 1007.9
20260509094505 40 27 0.0 0.0 0.00 0.00 0.00 1 1007.8
20260509093001 40 27 0.0 0.0 0.00 0.00 0.00 1 1007.7
20260509091557 40 27 0.0 0.0 0.00 0.00 0.00 1 1007.9
20260509090056 40 27 0.0 0.0 0.00 0.00 0.00 1 1008.0
20260509084550 40 27 0.0 0.0 0.00 0.00 0.00 1 1008.4
20260509083051 40 27 0.0 0.0 0.00 0.00 0.00 1 1008.4
20260509081540 40 27 0.0 0.0 0.00 0.00 0.00 1 1008.6
20260509080035 40 27 0.0 0.0 0.00 0.00 0.00 1 1008.6
20260509074531 41 27 0.0 0.0 0.00 0.00 0.00 1 1008.7
20260509073026 41 27 0.0 0.0 0.00 0.00 0.00 1 1008.9
20260509071521 41 27 0.0 0.0 0.00 0.00 0.00 2 1008.7
20260509070018 41 27 0.0 0.0 0.00 0.00 0.00 1 1008.8
20260509064513 41 27 0.0 0.0 0.00 0.00 0.00 2 1008.9
20260509063008 42 27 0.0 0.0 0.00 0.00 0.00 12 1009.1
20260509061505 42 27 0.0 0.0 0.00 0.00 0.00 21 1009.1
20260509054609 42 27 0.0 0.0 0.00 0.00 0.00 30 1009.7
20260509053055 42 27 0.0 0.0 0.00 0.00 0.00 28 1009.8
20260509051547 42 27 0.0 0.0 0.00 0.00 0.00 30 1009.9
20260509050052 42 26 0.0 0.0 0.00 0.00 0.00 29 1010.1
20260509044538 42 27 0.0 0.0 0.00 0.00 0.00 23 1010.2
20260509043037 41 27 0.0 0.0 0.00 0.00 0.00 12 1010.2
20260509041529 40 27 0.0 0.0 0.00 0.00 0.00 7 1010.3
20260509040025 40 27 0.0 0.0 0.00 0.00 0.00 9 1010.2
20260509034520 40 27 0.0 0.0 0.00 0.00 0.00 3 1010.2
20260509033016 39 27 0.0 0.0 0.00 0.00 0.00 3 1010.3
20260509031523 39 27 0.0 0.0 0.00 0.00 0.00 2 1010.2
20260509030006 39 27 0.0 0.0 0.00 0.00 0.00 1 1010.4
20260509024502 39 27 0.0 0.0 0.00 0.00 0.00 5 1010.4
20260509023102 40 27 0.0 0.0 0.00 0.00 0.00 12 1010.5
20260509021554 40 27 0.0 0.0 0.00 0.00 0.00 16 1010.5
20260509020049 41 27 0.0 0.0 0.00 0.00 0.00 22 1010.5
20260509014545 41 27 0.0 0.0 0.00 0.00 0.00 29 1010.3
20260509013044 42 27 0.0 0.0 0.00 0.00 0.00 35 1010.2
20260509011538 43 27 0.0 0.0 0.00 0.00 0.00 42 1010.0
20260509010031 44 27 0.0 0.0 0.00 0.00 0.00 50 1009.7
20260509004535 45 26 0.0 0.0 0.00 0.00 0.00 53 1009.5
20260509003023 47 27 0.0 0.0 0.00 0.00 0.00 56 1009.4
20260509001518 49 27 0.0 0.0 0.00 0.00 0.00 57 1009.3
20260509000015 51 26 0.0 0.0 0.00 0.00 0.00 53 1009.2
20260508234509 55 27 0.0 0.0 0.00 0.00 0.00 47 1009.0
20260508233005 58 27 0.0 0.0 0.00 0.00 0.00 40 1009.0
20260508231502 56 26 0.0 0.0 0.00 0.00 0.00 41 1008.9
20260508230104 56 231 0.0 0.0 0.00 0.00 0.00 41 1008.9
20260508224555 57 307 0.0 0.0 0.00 0.00 0.00 40 1008.9
20260508223047 56 70 0.0 0.0 0.00 0.00 0.00 40 1009.0
20260508221543 56 252 0.0 0.0 0.00 0.00 0.00 39 1009.3
20260508220042 57 265 0.0 0.0 0.00 0.00 0.00 41 1009.3
20260508214534 57 258 0.0 0.0 0.00 0.00 0.00 40 1009.4
20260508213043 55 227 0.0 0.0 0.00 0.00 0.00 42 1009.5
20260508211529 55 309 0.0 0.0 0.00 0.00 0.00 43 1009.5
20260508210021 56 231 0.0 0.9 0.00 0.00 0.00 43 1009.5
20260508204518 55 276 0.0 5.2 0.00 0.00 0.00 43 1009.6
20260508203014 54 296 0.0 0.0 0.00 0.00 0.00 47 1009.6
20260508201508 56 290 0.0 0.9 0.00 0.00 0.00 45 1009.7
20260508200007 55 290 0.0 15.6 0.00 0.00 0.00 44 1010.0
20260508194559 54 288 0.0 6.1 0.00 0.00 0.00 49 1010.2
20260508193057 53 138 0.0 0.0 0.00 0.00 0.00 52 1010.1
20260508191551 53 238 0.0 0.0 0.00 0.00 0.00 55 1010.2
20260508190051 53 133 0.0 2.6 0.00 0.00 0.00 52 1010.3
20260508184541 51 216 0.0 0.9 0.00 0.00 0.00 55 1010.5
20260508183038 51 258 0.0 1.7 0.00 0.00 0.00 56 1010.7
20260508181554 51 265 0.0 2.6 0.00 0.00 0.00 55 1010.7
20260508180028 50 297 0.0 2.6 0.00 0.00 0.00 55 1010.7
20260508174528 50 226 0.0 0.9 0.00 0.00 0.00 55 1010.7